+ View the NASA Portal
+ Center for Near-Earth Object Studies
IMPORTANT:
The SSD Announcement email list is now available. Major changes are coming in the near future, including possible hostname and/or URL changes. To be notified of such changes, subscribe to this email list.
Please visit
this page
for more details.
Don't show this message again
JPL Small-Body Database Browser
Search:
[
help
]
413206 (2003 BS64)
Classification:
Main-belt Asteroid
SPK-ID:
2413206
[
Ephemeris
|
Orbit Diagram
|
Orbital Elements
|
Mission Design
|
Physical Parameters
|
Discovery Circumstances
]
[ show orbit diagram ]
Orbital Elements at Epoch 2458600.5 (2019-Apr-27.0) TDB
Reference:
JPL 11
(heliocentric ecliptic J2000)
Element
Value
Uncertainty (1-sigma)
Units
e
.2511507319417645
1.7083e-07
a
2.53124565058934
1.8363e-08
au
q
1.89552145271942
4.3767e-07
au
i
3.728547751204931
1.1538e-05
deg
node
291.9135774424922
7.2394e-05
deg
peri
114.3559299554125
7.8285e-05
deg
M
64.1263268916817
3.0695e-05
deg
t
p
2458338.480428457884
(2018-Aug-07.98042846)
0.00012619
TDB
period
1470.956630877882
4.03
1.6007e-05
4.382e-08
d
yr
n
.2447386907560615
2.6632e-09
deg/d
Q
3.166969848459261
2.2975e-08
au
Orbit Determination Parameters
# obs. used (total)
282
data-arc span
5853 days (16.02 yr)
first obs. used
2003-01-08
last obs. used
2019-01-17
planetary ephem.
DE431
SB-pert. ephem.
SB431-N16
condition code
0
norm. resid. RMS
.49597
source
ORB
producer
Otto Matic
solution date
2019-Jul-13 17:24:19
Additional Information
Earth MOID
= .908402 au
Jupiter MOID
= 2.24947 au
T_jup
= 3.403
[ show covariance matrix ]
[
Ephemeris
|
Orbit Diagram
|
Orbital Elements
|
Mission Design
|
Physical Parameters
|
Discovery Circumstances
]
Physical Parameter Table
Parameter
Symbol
Value
Units
Sigma
Reference
Notes
absolute magnitude
H
16.7
n/a
MPO460569
413206 (2003 BS64)
Discovered 2003-Jan-30 by NEAT at Palomar
Reference:
Last Updated:
2014-11-10
Alternate Designations
2003 BS64
= 2006 YC8
[
Ephemeris
|
Orbit Diagram
|
Orbital Elements
|
Mission Design
|
Physical Parameters
|
Discovery Circumstances
]
2019-Dec-10 19:10 UT
(server date/time)
Site Manager:
Ryan S. Park
Webmaster
:
Alan B. Chamberlin